Location: Sun City Center
(27.6996°N, 82.3528°W)
Time: 18:01:49
(UTC-04:00)

Cosmos 2084 Rocket - Visible Passes

Search period start: 29 September 2016 00:00
Search period end: 09 October 2016 00:00
Orbit: 497 x 687 km, 62.8° (Epoch: 29 September)

Date Brightness Start Highest point End Pass type
(mag) Time Alt. Az. Time Alt. Az. Time Alt. Az.
29 Sep 6.4 06:24:55 10° NNE 06:26:20 12° NE 06:27:46 10° ENE visible
30 Sep 5.9 06:32:04 10° N 06:35:12 22° ENE 06:38:27 10° ESE visible
30 Sep 5.4 20:30:21 10° SSE 20:31:06 13° SSE 20:31:06 13° SSE visible
01 Oct 4.6 06:40:10 10° NNW 06:43:59 43° ENE 06:47:57 10° SE visible
01 Oct 3.8 20:38:14 10° S 20:41:22 40° SSE 20:41:22 40° SSE visible
02 Oct 3.3 06:48:41 10° NNW 06:52:40 87° WSW 06:56:54 10° SSE visible
02 Oct 3.3 20:46:45 10° SSW 20:50:51 79° WNW 20:51:33 58° N visible
03 Oct 6.3 05:19:58 10° NNE 05:21:47 13° NE 05:23:38 10° E visible
03 Oct 3.8 06:57:34 10° NW 07:01:19 40° WSW 07:05:17 10° S visible
03 Oct 4.7 20:55:48 10° SW 20:59:33 36° WNW 21:01:34 21° N visible
04 Oct 5.5 05:27:45 12° N 05:30:37 24° ENE 05:34:00 10° ESE visible
04 Oct 5.9 21:05:30 10° W 21:08:21 18° NW 21:11:07 10° N visible
05 Oct 4.2 05:37:55 32° N 05:39:22 48° ENE 05:43:25 10° SE visible
05 Oct 3.4 19:33:34 10° SSW 19:37:35 52° ESE 19:41:24 10° NE visible
06 Oct 3.1 05:48:10 78° SW 05:48:10 78° SW 05:52:16 10° SSE visible
06 Oct 3.6 19:42:09 10° SW 19:46:14 70° WNW 19:50:08 10° NNE visible
07 Oct 4.7 05:58:25 25° SSW 05:58:25 25° SSW 06:00:34 10° S visible
07 Oct 5.1 19:51:17 10° WSW 19:54:57 32° WNW 19:58:29 10° N visible
08 Oct 6.0 20:01:06 10° W 20:03:45 17° NW 20:06:20 10° NNW visible
